TimeAKST,TemperatureF,Dew PointF,Humidity,Sea Level PressureIn,VisibilityMPH,Wind Direction,Wind SpeedMPH,Gust SpeedMPH,PrecipitationIn,Events,Conditions,WindDirDegrees,DateUTC
12:16 AM,30.2,26.6,86,30.44,10.0,SSE,3.5,-,N/A,,Clear,160,2013-03-04 09:16:00
12:36 AM,30.2,26.6,86,30.44,10.0,SE,5.8,-,N/A,,Partly Cloudy,140,2013-03-04 09:36:00
12:56 AM,30.2,26.6,86,30.44,10.0,Calm,Calm,-,N/A,,Scattered Clouds,0,2013-03-04 09:56:00
1:16 AM,30.2,26.6,86,30.44,10.0,South,5.8,-,N/A,,Mostly Cloudy,170,2013-03-04 10:16:00
1:36 AM,30.2,26.6,86,30.44,10.0,SSE,3.5,-,N/A,,Overcast,150,2013-03-04 10:36:00
1:56 AM,30.2,28.4,93,30.44,10.0,Calm,Calm,-,N/A,,Overcast,0,2013-03-04 10:56:00
2:16 AM,32.0,26.6,80,30.45,10.0,Calm,Calm,-,N/A,,Overcast,0,2013-03-04 11:16:00
2:36 AM,32.0,28.4,87,30.45,10.0,SSW,3.5,-,N/A,,Overcast,210,2013-03-04 11:36:00
2:56 AM,32.0,28.4,87,30.45,10.0,Calm,Calm,-,N/A,,Overcast,0,2013-03-04 11:56:00
3:16 AM,32.0,28.4,87,30.44,10.0,Calm,Calm,-,N/A,,Overcast,0,2013-03-04 12:16:00
3:36 AM,30.2,28.4,93,30.44,10.0,SSE,3.5,-,N/A,,Overcast,160,2013-03-04 12:36:00
3:56 AM,30.2,26.6,86,30.44,10.0,SE,4.6,-,N/A,,Mostly Cloudy,140,2013-03-04 12:56:00
4:16 AM,30.2,26.6,86,30.44,10.0,SSE,5.8,-,N/A,,Mostly Cloudy,160,2013-03-04 13:16:00
4:36 AM,30.2,26.6,86,30.44,10.0,SSE,4.6,-,N/A,,Mostly Cloudy,150,2013-03-04 13:36:00
4:56 AM,30.2,24.8,80,30.43,10.0,SSE,3.5,-,N/A,,Scattered Clouds,150,2013-03-04 13:56:00
5:16 AM,30.2,26.6,86,30.43,10.0,SE,3.5,-,N/A,,Scattered Clouds,130,2013-03-04 14:16:00
5:36 AM,30.2,26.6,86,30.43,10.0,SSE,3.5,-,N/A,,Mostly Cloudy,160,2013-03-04 14:36:00
5:56 AM,30.2,26.6,86,30.43,10.0,SE,3.5,-,N/A,,Mostly Cloudy,140,2013-03-04 14:56:00
6:16 AM,30.2,26.6,86,30.42,10.0,SSE,3.5,-,N/A,,Mostly Cloudy,150,2013-03-04 15:16:00
6:36 AM,30.2,26.6,86,30.42,10.0,SSE,4.6,-,N/A,,Mostly Cloudy,150,2013-03-04 15:36:00
6:56 AM,30.2,24.8,80,30.42,10.0,Calm,Calm,-,N/A,,Mostly Cloudy,0,2013-03-04 15:56:00
7:16 AM,28.4,24.8,86,30.42,10.0,SSE,3.5,-,N/A,,Mostly Cloudy,150,2013-03-04 16:16:00
7:36 AM,30.2,26.6,86,30.42,10.0,ENE,3.5,-,N/A,,Mostly Cloudy,60,2013-03-04 16:36:00
7:56 AM,30.2,26.6,86,30.42,10.0,Calm,Calm,-,N/A,,Scattered Clouds,0,2013-03-04 16:56:00
8:16 AM,32.0,28.4,87,30.42,10.0,Calm,Calm,-,N/A,,Scattered Clouds,0,2013-03-04 17:16:00
8:36 AM,32.0,26.6,80,30.42,10.0,Calm,Calm,-,N/A,,Scattered Clouds,0,2013-03-04 17:36:00
8:56 AM,33.8,28.4,81,30.42,10.0,SE,3.5,-,N/A,,Scattered Clouds,140,2013-03-04 17:56:00
9:16 AM,33.8,28.4,81,30.42,10.0,East,5.8,-,N/A,,Scattered Clouds,100,2013-03-04 18:16:00
9:56 AM,33.8,30.2,87,30.41,10.0,Calm,Calm,-,N/A,,Partly Cloudy,0,2013-03-04 18:56:00
10:16 AM,35.6,28.4,75,30.41,10.0,ESE,4.6,-,N/A,,Partly Cloudy,110,2013-03-04 19:16:00
10:36 AM,35.6,28.4,75,30.40,10.0,NW,5.8,-,N/A,,Partly Cloudy,310,2013-03-04 19:36:00
10:56 AM,39.2,28.4,65,30.40,10.0,ENE,5.8,-,N/A,,Clear,70,2013-03-04 19:56:00
11:16 AM,42.8,24.8,49,30.40,10.0,SE,9.2,19.6,N/A,,Clear,130,2013-03-04 20:16:00
11:36 AM,42.8,24.8,49,30.39,10.0,ENE,11.5,17.3,N/A,,Clear,70,2013-03-04 20:36:00
11:56 AM,42.8,21.2,42,30.37,10.0,ENE,16.1,25.3,N/A,,Clear,60,2013-03-04 20:56:00
12:16 PM,42.8,21.2,42,30.37,10.0,NE,15.0,23.0,N/A,,Clear,50,2013-03-04 21:16:00
12:36 PM,42.8,21.2,42,30.37,10.0,NE,16.1,20.7,N/A,,Clear,50,2013-03-04 21:36:00
12:56 PM,42.8,19.4,39,30.36,10.0,NE,16.1,23.0,N/A,,Clear,40,2013-03-04 21:56:00
1:16 PM,42.8,21.2,42,30.36,10.0,NE,15.0,24.2,N/A,,Clear,40,2013-03-04 22:16:00
1:36 PM,42.8,17.6,36,30.36,10.0,ENE,11.5,17.3,N/A,,Clear,60,2013-03-04 22:36:00
1:56 PM,42.8,19.4,39,30.35,10.0,NE,13.8,-,N/A,,Clear,40,2013-03-04 22:56:00
2:16 PM,44.6,17.6,34,30.35,10.0,NE,10.4,17.3,N/A,,Clear,40,2013-03-04 23:16:00
2:36 PM,44.6,19.4,37,30.35,10.0,NE,11.5,16.1,N/A,,Clear,40,2013-03-04 23:36:00
2:56 PM,42.8,19.4,39,30.34,10.0,NE,9.2,-,N/A,,Clear,40,2013-03-04 23:56:00
3:16 PM,42.8,19.4,39,30.33,10.0,NE,10.4,-,N/A,,Clear,40,2013-03-05 00:16:00
3:36 PM,42.8,17.6,36,30.33,10.0,NE,10.4,18.4,N/A,,Clear,40,2013-03-05 00:36:00
3:56 PM,42.8,19.4,39,30.32,10.0,NE,8.1,-,N/A,,Clear,50,2013-03-05 00:56:00
4:16 PM,42.8,19.4,39,30.32,10.0,NE,8.1,-,N/A,,Clear,50,2013-03-05 01:16:00
4:36 PM,42.8,19.4,39,30.31,10.0,ENE,4.6,-,N/A,,Clear,70,2013-03-05 01:36:00
4:56 PM,42.8,15.8,34,30.31,10.0,South,4.6,-,N/A,,Clear,170,2013-03-05 01:56:00
5:16 PM,42.8,15.8,34,30.30,10.0,East,4.6,-,N/A,,Clear,90,2013-03-05 02:16:00
5:36 PM,41.0,15.8,36,30.29,10.0,East,10.4,-,N/A,,Clear,90,2013-03-05 02:36:00
5:56 PM,41.0,19.4,42,30.29,10.0,SE,5.8,-,N/A,,Clear,140,2013-03-05 02:56:00
6:16 PM,37.4,19.4,48,30.30,10.0,SE,8.1,-,N/A,,Clear,140,2013-03-05 03:16:00
6:36 PM,37.4,19.4,48,30.29,10.0,ESE,9.2,-,N/A,,Clear,110,2013-03-05 03:36:00
6:56 PM,39.2,17.6,42,30.29,10.0,ESE,9.2,-,N/A,,Clear,120,2013-03-05 03:56:00
7:16 PM,35.6,21.2,56,30.29,10.0,SE,9.2,-,N/A,,Clear,130,2013-03-05 04:16:00
7:36 PM,35.6,21.2,56,30.29,10.0,SE,11.5,-,N/A,,Clear,140,2013-03-05 04:36:00
7:56 PM,35.6,21.2,56,30.29,10.0,SE,9.2,-,N/A,,Clear,140,2013-03-05 04:56:00
8:16 PM,35.6,21.2,56,30.28,10.0,SE,11.5,-,N/A,,Clear,130,2013-03-05 05:16:00
8:36 PM,35.6,23.0,60,30.28,10.0,ESE,10.4,-,N/A,,Clear,110,2013-03-05 05:36:00
8:56 PM,35.6,24.8,65,30.27,10.0,ESE,8.1,-,N/A,,Clear,120,2013-03-05 05:56:00
9:16 PM,33.8,26.6,75,30.27,10.0,ESE,9.2,-,N/A,,Clear,110,2013-03-05 06:16:00
10:36 PM,33.8,24.8,70,30.26,10.0,SSE,6.9,-,N/A,,Clear,150,2013-03-05 07:36:00
10:56 PM,33.8,24.8,70,30.26,10.0,SSE,5.8,-,N/A,,Clear,150,2013-03-05 07:56:00
11:16 PM,32.0,23.0,69,30.26,10.0,SSE,6.9,-,N/A,,Clear,150,2013-03-05 08:16:00
11:36 PM,33.8,24.8,70,30.25,10.0,SE,8.1,-,N/A,,Clear,140,2013-03-05 08:36:00
11:56 PM,33.8,23.0,65,30.25,10.0,SE,6.9,-,N/A,,Clear,140,2013-03-05 08:56:00